N5TSS Weather Reports


time (UTC)temp
C
wind
direction
speed
KPH
gust
KPH
rain 1hr
cm
rain 24hr
cm
rain mn
cm
humidity
%
barometer
mb
20260505170324 25 201 8.0 11.3 0.00 0.00 0.00 80 1010.5
20260505165819 25 161 8.0 14.5 0.00 0.00 0.00 80 1010.5
20260505165315 25 175 9.7 17.7 0.00 0.00 0.00 80 1010.5
20260505164811 25 166 6.4 12.9 0.00 0.00 0.00 79 1010.5
20260505164308 26 174 8.0 16.1 0.00 0.00 0.00 79 1010.5
20260505163806 26 153 9.7 20.9 0.00 0.00 0.00 78 1010.5
20260505163305 26 175 4.8 11.3 0.00 0.00 0.00 79 1010.5
20260505162802 25 174 9.7 17.7 0.00 0.00 0.00 80 1010.5
20260505162258 25 179 9.7 14.5 0.00 0.00 0.00 80 1010.8
20260505161755 25 205 9.7 16.1 0.00 0.00 0.00 81 1010.8
20260505161253 25 149 6.4 9.7 0.00 0.00 0.00 81 1010.8
20260505160750 25 195 8.0 14.5 0.00 0.00 0.00 81 1010.8
20260505160248 25 159 6.4 9.7 0.00 0.00 0.00 82 1010.8
20260505153227 24 202 9.7 14.5 0.00 0.00 0.00 82 1010.5
20260505152724 24 191 6.4 11.3 0.00 0.00 0.00 82 1010.5
20260505152220 24 188 1.6 6.4 0.00 0.00 0.00 83 1010.5
20260505151715 24 178 6.4 14.5 0.00 0.00 0.00 82 1010.5
20260505151213 24 170 9.7 16.1 0.00 0.00 0.00 82 1010.5
20260505150709 24 167 3.2 9.7 0.00 0.00 0.00 83 1010.5
20260505150206 24 144 4.8 6.4 0.00 0.00 0.00 84 1010.5
20260505140639 23 168 8.0 11.3 0.00 0.00 0.00 86 1010.2
20260505140136 23 133 1.6 3.2 0.00 0.00 0.00 86 1010.5
20260505124549 22 142 4.8 8.0 0.00 0.00 0.00 88 1010.5
20260505124046 21 165 6.4 11.3 0.00 0.00 0.00 88 1010.2
20260505123542 21 191 4.8 8.0 0.00 0.00 0.00 88 1009.8
20260505123038 21 110 3.2 4.8 0.00 0.00 0.00 89 1009.8
20260505122536 21 190 6.4 6.4 0.00 0.00 0.00 89 1009.8
20260505122032 21 182 4.8 8.0 0.00 0.00 0.00 89 1009.8
20260505121529 21 182 9.7 16.1 0.00 0.00 0.00 89 1009.8
20260505121026 21 164 3.2 8.0 0.00 0.00 0.00 89 1010.2
20260505120522 21 127 1.6 4.8 0.00 0.00 0.00 89 1009.8
20260505120017 21 176 4.8 6.4 0.00 0.00 0.00 89 1009.8
20260505115512 21 208 4.8 11.3 0.00 0.00 0.00 89 1010.2
20260505115010 21 169 4.8 6.4 0.00 0.00 0.00 89 1010.2
20260505114507 21 213 4.8 8.0 0.00 0.00 0.00 89 1009.8
20260505114003 21 213 4.8 8.0 0.00 0.00 0.00 88 1009.8
20260505113500 21 172 3.2 8.0 0.00 0.00 0.00 88 1009.8
20260505112955 21 185 3.2 4.8 0.00 0.00 0.00 88 1009.8
20260505112453 21 183 8.0 9.7 0.00 0.00 0.00 88 1009.8
20260505111950 21 208 6.4 9.7 0.00 0.00 0.00 88 1009.8
20260505111443 21 184 6.4 11.3 0.00 0.00 0.00 88 1009.8
20260505110940 21 160 1.6 4.8 0.00 0.00 0.00 88 1009.8
20260505110437 21 188 9.7 16.1 0.00 0.00 0.00 88 1009.8
20260505101909 21 188 6.4 11.3 0.00 0.00 0.00 88 1009.5
20260505101408 21 154 6.4 17.7 0.00 0.00 0.00 88 1009.8
20260505100905 21 161 3.2 4.8 0.00 0.00 0.00 88 1009.8
20260505100401 21 180 4.8 9.7 0.00 0.00 0.00 88 1009.8
20260505095857 21 182 4.8 6.4 0.00 0.00 0.00 88 1010.2
20260505095355 21 193 4.8 11.3 0.00 0.00 0.00 88 1010.2
20260505094850 21 165 3.2 4.8 0.00 0.00 0.00 88 1010.2
20260505094348 21 156 3.2 3.2 0.00 0.00 0.00 88 1009.8
20260505093843 21 168 3.2 6.4 0.00 0.00 0.00 88 1009.8
20260505093341 21 165 3.2 6.4 0.00 0.00 0.00 87 1009.8
20260505092838 21 214 3.2 4.8 0.00 0.00 0.00 88 1010.2
20260505092336 21 176 4.8 9.7 0.00 0.00 0.00 87 1010.2
20260505091833 21 156 6.4 11.3 0.00 0.00 0.00 87 1010.2
20260505091331 21 162 4.8 6.4 0.00 0.00 0.00 87 1010.2
20260505090829 21 175 4.8 8.0 0.00 0.00 0.00 87 1010.2
20260505090327 21 146 6.4 9.7 0.00 0.00 0.00 87 1010.2
20260505085824 21 151 4.8 9.7 0.00 0.00 0.00 87 1010.2
20260505085322 21 165 9.7 17.7 0.00 0.00 0.00 86 1010.2
20260505084819 21 169 6.4 9.7 0.00 0.00 0.00 86 1010.2
20260505084318 21 182 4.8 8.0 0.00 0.00 0.00 86 1010.2
20260505083814 21 195 6.4 9.7 0.00 0.00 0.00 86 1010.5
20260505083312 21 182 3.2 6.4 0.00 0.00 0.00 86 1010.5
20260505082808 21 146 6.4 8.0 0.00 0.00 0.00 86 1010.5
20260505082305 21 169 4.8 6.4 0.00 0.00 0.00 85 1010.5
20260505081801 21 149 0.0 4.8 0.00 0.00 0.00 85 1010.5
20260505081258 21 187 4.8 6.4 0.00 0.00 0.00 85 1010.5
20260505080755 21 149 3.2 6.4 0.00 0.00 0.00 85 1010.5
20260505080250 21 143 4.8 6.4 0.00 0.00 0.00 85 1010.5
20260505075746 21 152 3.2 6.4 0.00 0.00 0.00 85 1010.5
20260505075244 21 159 3.2 6.4 0.00 0.00 0.00 84 1010.5
20260505074741 21 194 6.4 9.7 0.00 0.00 0.00 85 1010.5
20260505074238 21 158 4.8 6.4 0.00 0.00 0.00 84 1010.8
20260505073736 21 141 3.2 6.4 0.00 0.00 0.00 84 1010.8
20260505073233 21 177 3.2 3.2 0.00 0.00 0.00 84 1010.8
20260505072729 21 191 8.0 12.9 0.00 0.00 0.00 84 1010.8
20260505072225 21 164 8.0 14.5 0.00 0.00 0.00 84 1011.2
20260505071721 21 147 4.8 8.0 0.00 0.00 0.00 84 1011.2
20260505071219 21 172 3.2 8.0 0.00 0.00 0.00 84 1011.2
20260505070716 21 146 3.2 3.2 0.00 0.00 0.00 84 1011.2
20260505070212 21 152 4.8 8.0 0.00 0.00 0.00 83 1011.2
20260505065708 21 148 3.2 4.8 0.00 0.00 0.00 83 1011.2
20260505065205 21 153 4.8 11.3 0.00 0.00 0.00 83 1011.5
20260505064702 21 119 1.6 4.8 0.00 0.00 0.00 83 1011.5
20260505064200 21 170 4.8 12.9 0.00 0.00 0.00 83 1011.5
20260505063657 21 171 6.4 9.7 0.00 0.00 0.00 83 1011.5
20260505063153 21 202 4.8 9.7 0.00 0.00 0.00 82 1011.5
20260505062649 21 175 3.2 6.4 0.00 0.00 0.00 82 1011.5
20260505062147 21 183 6.4 9.7 0.00 0.00 0.00 82 1011.5
20260505061644 21 169 3.2 4.8 0.00 0.00 0.00 82 1011.5
20260505061142 21 147 3.2 4.8 0.00 0.00 0.00 82 1011.9
20260505060639 21 183 4.8 6.4 0.00 0.00 0.00 82 1011.9
20260505060136 21 134 6.4 9.7 0.00 0.00 0.00 82 1011.9
20260505055631 21 184 4.8 9.7 0.00 0.00 0.00 82 1011.9
20260505055128 21 155 3.2 3.2 0.00 0.00 0.00 81 1011.5
20260505054626 21 165 3.2 8.0 0.00 0.00 0.00 81 1011.5
20260505054124 21 157 4.8 6.4 0.00 0.00 0.00 81 1011.5
20260505053621 21 202 9.7 16.1 0.00 0.00 0.00 80 1011.5
20260505053117 21 206 4.8 11.3 0.00 0.00 0.00 80 1011.5
20260505052614 21 180 3.2 11.3 0.00 0.00 0.00 80 1011.9
20260505052112 21 175 3.2 6.4 0.00 0.00 0.00 80 1011.5
20260505051608 21 162 4.8 12.9 0.00 0.00 0.00 80 1011.9
20260505051107 21 159 6.4 9.7 0.00 0.00 0.00 80 1011.9
20260505050604 21 176 4.8 6.4 0.00 0.00 0.00 79 1011.9
20260505041532 22 195 3.2 6.4 0.00 0.00 0.00 77 1011.9
20260505041029 22 173 8.0 14.5 0.00 0.00 0.00 77 1011.9
20260505040526 22 157 6.4 11.3 0.00 0.00 0.00 77 1011.9
20260505040024 22 146 8.0 12.9 0.00 0.00 0.00 77 1011.9
20260505035519 22 162 6.4 11.3 0.00 0.00 0.00 76 1011.9
20260505035017 22 177 8.0 14.5 0.00 0.00 0.00 76 1011.9
20260505034513 22 178 9.7 20.9 0.00 0.00 0.00 76 1011.9
20260505034010 22 182 9.7 12.9 0.00 0.00 0.00 75 1011.9
20260505033507 22 208 3.2 9.7 0.00 0.00 0.00 76 1011.9
20260505033005 22 187 8.0 12.9 0.00 0.00 0.00 75 1011.9
20260505032502 22 177 8.0 14.5 0.00 0.00 0.00 75 1011.9
20260505031958 22 199 6.4 11.3 0.00 0.00 0.00 74 1011.9
20260505031455 22 180 6.4 11.3 0.00 0.00 0.00 74 1012.2
20260505030952 23 198 9.7 16.1 0.00 0.00 0.00 74 1011.9
20260505030448 23 161 6.4 11.3 0.00 0.00 0.00 73 1011.9
20260505025944 23 153 8.0 16.1 0.00 0.00 0.00 74 1011.9
20260505025441 23 182 8.0 11.3 0.00 0.00 0.00 73 1011.9
20260505024940 23 142 4.8 8.0 0.00 0.00 0.00 73 1011.9
20260505024437 23 191 9.7 19.3 0.00 0.00 0.00 73 1011.9
20260505023934 23 149 6.4 9.7 0.00 0.00 0.00 73 1011.5
20260505023431 23 168 8.0 11.3 0.00 0.00 0.00 74 1011.9
20260505022928 23 172 4.8 8.0 0.00 0.00 0.00 73 1011.9
20260505022426 23 210 8.0 9.7 0.00 0.00 0.00 73 1011.5
20260505021922 23 171 8.0 12.9 0.00 0.00 0.00 73 1011.5
20260505021419 23 188 4.8 14.5 0.00 0.00 0.00 73 1011.9
20260505020915 23 151 6.4 14.5 0.00 0.00 0.00 73 1011.9
20260505020410 23 175 4.8 8.0 0.00 0.00 0.00 72 1011.9
20260505015908 23 126 4.8 9.7 0.00 0.00 0.00 72 1011.9
20260505015405 23 185 6.4 12.9 0.00 0.00 0.00 72 1011.5
20260505014902 23 148 4.8 8.0 0.00 0.00 0.00 72 1011.5
20260505014359 23 188 6.4 11.3 0.00 0.00 0.00 72 1011.5
20260505013855 23 170 6.4 9.7 0.00 0.00 0.00 72 1011.5
20260505013352 23 131 1.6 3.2 0.00 0.00 0.00 72 1011.5
20260505012851 23 182 3.2 9.7 0.00 0.00 0.00 71 1011.2
20260505012349 23 157 4.8 6.4 0.00 0.00 0.00 71 1011.2
20260505011844 23 191 3.2 8.0 0.00 0.00 0.00 70 1011.2
20260505011341 24 169 3.2 8.0 0.00 0.00 0.00 70 1011.2
20260505010837 24 140 6.4 9.7 0.00 0.00 0.00 69 1011.2
20260505010333 24 196 8.0 11.3 0.00 0.00 0.00 70 1011.2
20260505005830 24 184 8.0 12.9 0.00 0.00 0.00 69 1011.2
20260505005326 24 170 6.4 11.3 0.00 0.00 0.00 69 1011.2
20260505004824 24 156 3.2 4.8 0.00 0.00 0.00 68 1011.2
20260505004320 24 158 6.4 12.9 0.00 0.00 0.00 68 1011.5
20260505003818 24 172 4.8 6.4 0.00 0.00 0.00 68 1011.2
20260505003315 25 208 6.4 14.5 0.00 0.00 0.00 67 1011.2
20260505002811 25 150 6.4 11.3 0.00 0.00 0.00 67 1011.2
20260505002308 25 152 4.8 9.7 0.00 0.00 0.00 66 1011.2
20260505001806 25 158 6.4 11.3 0.00 0.00 0.00 66 1011.2
20260505001303 25 182 3.2 9.7 0.00 0.00 0.00 65 1011.2
20260505000800 25 170 12.9 19.3 0.00 0.00 0.00 66 1011.2
20260505000258 25 179 6.4 12.9 0.00 0.00 0.00 65 1011.2
20260504235754 25 183 4.8 9.7 0.00 0.00 0.00 65 1011.2
20260504235250 25 163 4.8 8.0 0.00 0.00 0.00 65 1011.2
20260504234748 25 162 4.8 9.7 0.00 0.00 0.00 64 1011.2
20260504234245 25 177 6.4 14.5 0.00 0.00 0.00 64 1011.2
20260504233741 25 187 6.4 11.3 0.00 0.00 0.00 63 1011.2
20260504233237 25 188 4.8 9.7 0.00 0.00 0.00 62 1011.2
20260504232735 25 167 4.8 9.7 0.00 0.00 0.00 62 1011.2
20260504232231 26 199 4.8 11.3 0.00 0.00 0.00 62 1011.2
20260504231728 26 166 6.4 11.3 0.00 0.00 0.00 62 1011.5
20260504231224 26 167 9.7 17.7 0.00 0.00 0.00 61 1011.5
20260504230721 26 182 9.7 17.7 0.00 0.00 0.00 61 1011.5
20260504230220 26 171 6.4 11.3 0.00 0.00 0.00 60 1011.5
20260504225718 26 182 9.7 14.5 0.00 0.00 0.00 59 1011.5
20260504225213 26 204 9.7 14.5 0.00 0.00 0.00 60 1011.9
20260504224711 26 188 4.8 8.0 0.00 0.00 0.00 61 1011.5
20260504224209 26 169 6.4 11.3 0.00 0.00 0.00 60 1011.5
20260504223704 26 159 8.0 14.5 0.00 0.00 0.00 59 1011.9
20260504223200 26 163 4.8 9.7 0.00 0.00 0.00 60 1011.9
20260504222658 26 160 9.7 12.9 0.00 0.00 0.00 60 1011.9
20260504222154 26 140 6.4 12.9 0.00 0.00 0.00 61 1011.9
20260504221651 26 182 6.4 11.3 0.00 0.00 0.00 60 1011.9
20260504221148 26 184 6.4 11.3 0.00 0.00 0.00 59 1011.9
20260504220645 26 141 6.4 11.3 0.00 0.00 0.00 59 1011.9
20260504220143 26 131 3.2 8.0 0.00 0.00 0.00 59 1012.2
20260504215638 26 164 6.4 11.3 0.00 0.00 0.00 59 1012.2
20260504215136 26 193 6.4 8.0 0.00 0.00 0.00 58 1012.2
20260504214632 27 61 3.2 4.8 0.00 0.00 0.00 58 1012.2
20260504214128 26 165 6.4 12.9 0.00 0.00 0.00 58 1012.2
20260504213625 27 185 8.0 14.5 0.00 0.00 0.00 56 1012.2
20260504213122 27 177 9.7 12.9 0.00 0.00 0.00 56 1012.2
20260504212618 27 148 8.0 12.9 0.00 0.00 0.00 58 1012.5
20260504212115 26 166 8.0 12.9 0.00 0.00 0.00 59 1012.5
20260504211612 26 188 8.0 12.9 0.00 0.00 0.00 58 1012.9
20260504211109 26 182 8.0 11.3 0.00 0.00 0.00 59 1012.9
20260504210607 26 149 6.4 14.5 0.00 0.00 0.00 58 1012.9
20260504205601 27 188 6.4 9.7 0.00 0.00 0.00 55 1012.9
20260504205058 27 191 6.4 14.5 0.00 0.00 0.00 55 1012.9
20260504204556 27 352 3.2 6.4 0.00 0.00 0.00 56 1012.9
20260504204055 27 182 9.7 14.5 0.00 0.00 0.00 56 1013.2
20260504203552 26 182 6.4 17.7 0.00 0.00 0.00 56 1013.2
20260504203050 26 136 3.2 8.0 0.00 0.00 0.00 57 1013.5
20260504202545 26 184 4.8 9.7 0.00 0.00 0.00 57 1013.2
20260504202042 27 161 4.8 9.7 0.00 0.00 0.00 55 1013.5
20260504201539 27 255 3.2 6.4 0.00 0.00 0.00 55 1013.5
20260504201037 27 182 8.0 14.5 0.00 0.00 0.00 54 1013.9
20260504200533 26 204 6.4 11.3 0.00 0.00 0.00 55 1013.5
20260504200030 26 156 9.7 16.1 0.00 0.00 0.00 55 1013.5
20260504195526 26 180 6.4 12.9 0.00 0.00 0.00 56 1013.9
20260504195023 27 142 6.4 11.3 0.00 0.00 0.00 54 1013.9
20260504194519 26 175 8.0 12.9 0.00 0.00 0.00 56 1013.9
20260504194015 26 210 3.2 6.4 0.00 0.00 0.00 57 1014.2
20260504193512 26 168 6.4 14.5 0.00 0.00 0.00 57 1014.2
20260504193011 26 150 6.4 14.5 0.00 0.00 0.00 55 1014.6
20260504192508 27 143 11.3 16.1 0.00 0.00 0.00 54 1014.2
20260504192007 26 188 6.4 12.9 0.00 0.00 0.00 55 1014.2
20260504191504 26 204 9.7 17.7 0.00 0.00 0.00 56 1014.6
20260504190959 26 180 8.0 11.3 0.00 0.00 0.00 55 1014.6
20260504190455 26 144 8.0 9.7 0.00 0.00 0.00 54 1014.6
20260504185952 26 162 6.4 11.3 0.00 0.00 0.00 54 1014.6
20260504185449 26 156 6.4 11.3 0.00 0.00 0.00 56 1014.9
20260504184945 26 167 4.8 9.7 0.00 0.00 0.00 57 1014.9
20260504184441 25 178 6.4 9.7 0.00 0.00 0.00 57 1015.2
20260504183937 25 170 8.0 9.7 0.00 0.00 0.00 56 1015.2
20260504183434 26 180 8.0 12.9 0.00 0.00 0.00 55 1014.9
20260504182932 26 123 6.4 9.7 0.00 0.00 0.00 55 1014.9
20260504182429 26 157 4.8 6.4 0.00 0.00 0.00 54 1015.2
20260504181926 25 195 8.0 17.7 0.00 0.00 0.00 55 1015.2
20260504181423 25 231 8.0 14.5 0.00 0.00 0.00 57 1015.2
20260504180922 25 148 9.7 16.1 0.00 0.00 0.00 57 1015.2
20260504180420 26 163 9.7 17.7 0.00 0.00 0.00 56 1015.2
20260504175918 26 185 8.0 12.9 0.00 0.00 0.00 55 1015.2
20260504175415 26 205 8.0 12.9 0.00 0.00 0.00 54 1015.2
20260504174913 25 155 3.2 8.0 0.00 0.00 0.00 55 1015.2
20260504174410 25 199 8.0 12.9 0.00 0.00 0.00 54 1015.2
20260504173907 25 157 9.7 14.5 0.00 0.00 0.00 55 1015.2
20260504173403 25 188 12.9 22.5 0.00 0.00 0.00 55 1015.2
20260504172901 25 220 6.4 12.9 0.00 0.00 0.00 54 1015.6
20260504172357 25 199 16.1 25.7 0.00 0.00 0.00 54 1015.6
20260504171853 25 170 12.9 16.1 0.00 0.00 0.00 54 1015.6
20260504171350 25 193 6.4 12.9 0.00 0.00 0.00 56 1015.9
20260504170847 25 156 3.2 8.0 0.00 0.00 0.00 57 1016.3